Location: Edoum�
(0.9447°N, 10.6482°E)
Time: 13:42:39
(UTC+00:00)

Cosmos 1844 Rocket - Pass Details

Date: 07 June 2020
Orbit: 826 x 843 km, 71.0° (Epoch: 07 July)

Event Time Altitude Azimuth Distance (km) Brightness Sun altitude
Rises 03:54:24 0° 334° (NNW) 3,349 5.8 -18.4°
Reaches altitude 10° 03:56:53 10° 329° (NNW) 2,417 5.0 -17.9°
Maximum altitude 04:02:12 49° 255° (WSW) 1,055 2.8 -16.7°
Drops below altitude 10° 04:07:33 10° 181° (S) 2,425 4.8 -15.4°
Sets 04:10:04 0° 175° (S) 3,361 5.6 -14.9°
